Regional Weather Roundup
Issued by NWS

Home | Current Version | Previous Version | Graphics & Text | Print | Product List | Glossary On
Versions: 1 2 3 4 5 6 7 8 9 10 11 12 13 14 15 16 17 18 19 20 21 22 23 24 25 26 27 28 29 30 31 32 33 34 35 36 37 38 39 40 41 42 43 44 45 46 47 48 49 50
000
ASUS43 KTOP 011659
RWRKS

WEATHER ROUNDUP FOR KANSAS
NATIONAL WEATHER SERVICE GOODLAND KS
1200 PM CDT FRI AUG 01 2014

NOTE:  "FAIR" INDICATES FEW OR NO CLOUDS BELOW 12,000 FEET WITH NO
SIGNIFICANT WEATHER AND/OR OBSTRUCTIONS TO VISIBILITY.

KSZ001>006-013>018-027>032-041>047-011800-
NORTHWEST KANSAS

CITY           SKY/WX    TMP DP  RH WIND       PRES   REMARKS
GOODLAND       SUNNY     83  50  31 NW8       30.21R
HAYS           SUNNY     84  54  34 NE8       30.11S
HILL CITY      SUNNY     86  52  30 N8        30.13S
RUSSELL        SUNNY     86  56  35 N9        30.09S
$$

KSZ061>065-074>080-084>089-011800-
SOUTHWEST KANSAS

CITY           SKY/WX    TMP DP  RH WIND       PRES   REMARKS
DODGE CITY     SUNNY     85  54  34 N12       30.15R
ELKHART          N/A     82  53  36 SW2         N/A
GARDEN CITY    SUNNY     80  57  45 NW7       30.17S
GREAT BEND       N/A     82  59  44 N7        30.09S
LIBERAL        SUNNY     81  55  41 NW7       30.20S
$$

KSZ066>073-081>083-090>101-011800-
SOUTHEAST KANSAS

CITY           SKY/WX    TMP DP  RH WIND       PRES   REMARKS
CHANUTE        MOSUNNY   80  65  59 SE5       30.09F
COFFEYVILLE    MOSUNNY   77  66  68 SW8       30.10S
HUTCHINSON     SUNNY     85  58  39 SW9       30.07S
NEWTON         SUNNY     82  57  42 SW13      30.10S
PARSONS        MOSUNNY   78  66  66 S7        30.11S
WICHITA INTL   MOSUNNY   83  59  44 S9        30.07F
WICHITA JABRA  SUNNY     84  61  45 S13       30.07F
WINFIELD       MOSUNNY   81  65  58 S7        30.10F
$$

KSZ007>012-019>026-033>040-048>060-102>105-011800-
NORTHEAST KANSAS

CITY           SKY/WX    TMP DP  RH WIND       PRES   REMARKS
CONCORDIA      SUNNY     83  59  44 N12       30.06F
EMPORIA        SUNNY     83  59  44 S13       30.07S
LAWRENCE       MOSUNNY   82  65  56 SE8       30.07F
MANHATTAN      SUNNY     83  61  47 SW10      30.04S
OLATHE IND     SUNNY     81  59  47 SE8       30.09F
OLATHE EXE     MOSUNNY   79  62  56 MISG      30.08F
SALINA         SUNNY     86  59  39 NE6       30.06S
TOPEKA BILLARD MOSUNNY   84  60  44 S9        30.06S
TOPEKA FORBES  MOSUNNY   84  58  40 S14       30.06F
$$



USA.gov is the U.S. government's official web portal to all federal, state and local government web resources and services.